Theta_e
349 353 356 358 360 360 359 358 358 356 360 359 359 359 358 357 355 355 356 356 356 357 357 360 361 362 361 359 358 358 359 360
342 342 347 352 356 357 357 358 356 355 354 354 354 355 356 357 356 356 355 356 356 356 357 360 361 361 360 359 358 357 357 357
341 340 343 347 354 353 353 353 352 350 349 349 346 345 345 345 352 355 357 357 356 359 360 360 359 360 360 358 357 357 357 356
340 341 341 340 340 343 346 349 348 347 346 346 345 342 341 343 347 347 348 352 355 357 356 356 357 358 358 358 356 356 356 355
340 340 340 339 336 335 340 346 347 346 346 344 344 342 340 340 342 344 343 346 348 352 354 353 354 354 357 356 356 357 355 354
339 342 343 338 335 333 335 340 342 341 339 338 337 338 340 340 342 344 344 346 346 347 350 352 353 351 353 354 356 355 355 350
338 339 337 337 336 334 333 336 336 335 334 333 333 333 332 334 336 336 338 341 344 344 344 342 343 347 351 346 346 353 348 346
337 335 334 336 334 330 330 331 332 330 330 330 330 330 328 328 328 328 330 332 335 339 341 342 344 345 343 346 350 352 346 345
326 329 332 333 332 330 327 328 329 327 326 325 324 324 323 323 323 323 323 325 327 327 329 337 339 338 340 342 342 346 349 348
322 324 324 327 329 328 327 327 327 326 323 322 320 320 320 319 319 319 320 321 321 322 323 325 330 335 335 334 337 342 344 347
325 325 325 325 328 327 327 326 325 323 321 319 317 317 317 317 317 317 317 318 318 318 319 321 323 326 333 335 334 337 341 342
326 328 326 326 327 327 326 325 324 321 319 316 315 316 315 315 315 316 316 316 317 318 315 316 320 322 326 334 336 338 339 339
326 327 327 325 325 325 325 324 322 319 317 316 315 315 314 313 313 313 313 314 317 317 314 313 314 314 316 321 330 335 337 337
327 326 323 323 321 322 323 323 321 318 315 314 314 312 313 313 311 311 310 313 316 314 312 314 313 315 315 317 320 327 331 333
324 323 322 321 321 321 319 318 317 316 315 314 313 311 311 311 310 310 309 312 314 312 312 312 312 315 316 317 318 322 327 329
321 321 320 319 319 317 314 313 313 311 312 311 311 311 311 309 310 309 308 310 309 309 310 312 311 311 315 318 318 319 324 327
320 319 318 317 316 314 313 313 313 312 311 309 309 309 309 308 308 306 308 305 307 307 308 308 308 308 310 315 314 315 313 317
318 317 316 315 314 313 313 312 311 310 308 306 306 306 307 308 306 305 306 305 305 306 305 305 307 306 305 310 312 315 310 313
317 317 315 314 313 312 313 311 309 304 302 304 305 306 306 308 307 305 306 306 305 305 305 306 307 307 306 304 307 313 316 319
Wind_Speed
11 11 14 17 16 14 12 11 6 6 9 8 8 7 6 4 3 2 3 3 4 7 9 10 12 12 12 12 10 10 10 10
9 9 10 16 15 16 16 16 16 19 18 17 15 12 8 5 3 4 5 6 8 9 10 11 11 11 12 11 11 10 10 12
8 8 10 15 17 19 18 19 20 17 17 17 16 14 14 11 10 6 8 9 10 11 11 12 13 12 11 10 10 11 11 12
10 10 11 12 14 17 18 16 16 16 15 15 15 13 11 11 12 12 15 11 11 12 13 13 14 14 13 12 12 12 12 13
12 12 13 11 9 10 11 15 15 15 16 17 17 16 13 9 9 9 8 10 14 15 13 13 14 14 13 14 14 14 14 15
11 10 10 11 11 12 11 11 11 15 16 16 15 17 11 9 9 11 12 14 11 12 14 14 14 17 14 13 14 16 17 11
12 11 10 9 10 10 9 10 11 11 12 13 13 14 10 11 11 12 13 16 13 11 8 9 11 12 16 12 10 15 11 15
10 10 10 9 10 10 9 7 6 6 6 7 11 10 9 8 9 8 7 8 9 13 7 8 7 5 7 7 8 10 13 14
12 10 10 9 10 10 7 7 8 7 7 7 9 13 9 7 9 9 7 9 8 8 11 10 6 7 7 6 12 12 16 13
12 11 11 9 10 8 9 7 8 9 8 9 10 13 11 9 9 9 9 8 8 8 9 9 9 6 4 5 12 12 14 15
10 12 12 14 13 12 12 12 9 9 9 9 9 11 12 9 9 9 9 9 8 9 9 9 10 8 7 7 8 14 14 12
9 11 13 12 13 12 11 10 8 7 7 8 8 12 13 12 12 11 9 8 8 9 10 9 10 9 9 9 11 11 11 10
11 12 12 11 12 10 8 8 7 8 8 8 8 8 13 13 13 12 10 9 10 9 8 8 8 9 9 9 10 8 8 8
11 10 11 12 12 11 12 9 9 11 9 9 10 11 13 12 13 11 10 10 12 8 8 8 8 8 8 9 8 10 9 9
11 10 11 10 13 12 10 8 7 7 7 8 9 10 13 11 14 12 10 11 11 10 8 8 10 8 9 9 9 8 10 10
9 11 11 12 14 11 10 9 8 8 8 9 9 13 12 12 13 12 10 11 10 11 11 9 8 10 9 9 8 9 9 9
9 10 11 12 13 11 8 8 6 8 7 9 9 10 12 13 13 12 12 10 10 9 12 12 10 6 5 8 6 5 5 6
10 10 10 12 12 12 11 8 8 7 8 10 10 11 11 12 13 12 13 10 10 8 7 9 9 10 5 7 10 6 3 4
8 9 10 11 12 11 12 11 13 11 11 10 10 11 11 13 12 13 11 11 10 8 9 9 8 8 7 7 7 7 10 7
Wind_Direction
29 31 38 30 30 36 40 43 60 77 73 62 54 43 40 41 27 359 327 298 245 228 229 222 213 211 214 212 209 211 206 203
35 26 39 39 37 42 43 46 48 48 47 48 46 37 41 12 325 301 279 253 247 244 237 238 230 227 228 221 213 215 218 211
35 36 41 46 45 53 44 46 48 55 48 42 42 32 13 13 2 293 255 258 256 255 243 231 230 234 233 231 226 215 212 214
42 58 59 57 57 60 59 65 56 54 53 52 47 46 46 26 17 11 356 320 281 255 257 257 240 224 228 230 229 222 214 211
64 60 61 69 71 68 69 64 62 55 50 44 39 32 29 33 13 3 337 335 324 309 274 263 261 256 230 222 230 229 224 221
72 77 80 72 59 57 57 59 64 57 53 44 34 30 24 19 6 350 355 343 330 320 322 314 280 264 255 245 232 231 235 233
92 79 81 77 71 63 60 57 59 54 48 39 30 26 19 21 14 4 358 354 350 345 334 336 329 302 262 252 240 228 232 238
89 92 78 76 74 66 60 55 54 49 48 46 36 27 24 14 9 6 356 357 350 351 341 328 324 311 281 285 253 252 244 234
88 82 76 72 72 60 59 60 59 52 44 36 29 20 18 10 6 1 354 345 346 348 341 330 316 311 303 302 271 256 253 242
90 78 73 65 65 64 59 57 52 46 38 30 26 23 15 9 1 352 348 343 340 338 332 325 322 303 278 284 294 260 252 245
70 61 59 52 49 47 48 44 41 37 34 31 31 25 23 12 2 352 348 346 343 341 332 321 317 308 306 243 243 284 255 247
63 56 45 48 47 43 43 44 45 39 37 36 31 30 21 15 5 351 346 338 341 338 337 331 318 314 306 292 259 230 254 257
57 54 52 47 44 43 43 46 44 39 37 34 29 25 20 16 7 349 340 337 341 330 334 332 326 316 307 310 297 276 268 253
56 59 54 45 35 26 34 31 34 30 29 26 21 18 12 10 4 347 337 329 333 330 331 329 325 317 306 300 299 291 283 272
63 56 50 41 34 28 26 17 21 27 27 26 23 21 9 3 359 351 342 336 332 331 338 332 328 318 307 299 291 296 283 272
69 58 44 41 36 29 24 10 5 2 11 16 12 9 7 4 2 354 353 348 336 334 333 329 329 323 312 321 297 272 260 262
71 57 49 45 41 33 23 17 10 12 13 10 6 10 10 8 7 359 353 344 339 327 336 341 331 329 308 325 297 298 273 261
66 54 51 45 42 34 18 17 20 21 14 9 10 9 4 5 10 4 349 354 345 337 336 328 335 336 319 317 320 284 295 264
72 63 55 47 39 33 23 27 28 21 12 8 3 4 357 357 355 2 348 351 351 345 343 345 339 331 338 323 328 354 308 260